Retour au catalogue

STARLINK-34644

ActifCommunicationsVLEO
NORAD 64812·PAYLOAD·🇺🇸 United States

Lancé Jul 16, 2025 depuis Vandenberg Space Force Base

Loading…

Prochains Passages (prochaines 24 heures)

TLE

FraisSource: CelesTrak SupGP

Époque: Sep 14, 2026, 22:51 UTC

1 64812C 25150Y   26257.95256944 -.00052263  00000+0 -43796-2 0  2577
2 64812  70.0030  17.3167 0003331 271.7379  92.7309 14.98358337    16

Suivez STARLINK-34644 en temps réel avec AllMySat

Download on the App Store